Weather History for Drummond Island, MI

Change the Weather History Date:

Monday, January 7, 2013

  Actual Average (KCIU) Record (KCIU)
Temperature  
Mean Temperature 28 °F -  
Max Temperature 38 °F 24 °F 41 °F (2007)
Min Temperature 18 °F 4 °F -22 °F (1979)
Degree Days  
Heating Degree Days 37    
Moisture  
Dew Point 24 °F    
Average Humidity 75    
Maximum Humidity 91    
Minimum Humidity 62    
Precipitation  
Precipitation 0.00 in - - ()
Sea Level Pressure  
Sea Level Pressure 30.01 in    
Wind  
Wind Speed 7 mph (SSW)    
Max Wind Speed 21 mph    
Max Gust Speed 29 mph    
Visibility 10 miles    
Events      
Averages and records for this station are not official NWS values.
T = Trace of Precipitation, MM = Missing Value Source: NWS Daily Summary

Daily Weather History Graph

Daily Weather History Graph

Search for Another Location

Airport:

Trip Planner

Search our weather history database for the weather conditions in past years. The results will help you decide how hot, cold, wet, or windy it might be!

Date:

Astronomy

Jan. 07, 2013 Rise Set
Actual Time 8:16 AM EST 5:06 PM EST
Civil Twilight 7:42 AM EST 5:40 PM EST
Nautical Twilight 7:04 AM EST 6:18 PM EST
Astronomical Twilight 6:28 AM EST 6:54 PM EST
Moon 3:35 AM EST (1/7) 1:19 PM EST (1/7)
Length of Visible Light 9h 58m
Length of Day
8h 50m
Waning Crescent, 23% of the Moon is Illuminated
Jan 7
Waning Crescent
Jan 11
New
Jan 18
First Quarter
Jan 26
Full
Feb 3
Last Quarter

Hourly Weather History & Observations

Time (EST) Temp. Windchill Dew Point Humidity Pressure Visibility Wind Dir Wind Speed Gust Speed Precip Events Conditions
12:36 AM 18.9 °F - 13.1 °F 78% 30.22 in 10.0 mi Calm Calm - N/A   Overcast
12:55 AM 18.9 °F - 13.5 °F 79% 30.22 in 10.0 mi Calm Calm - N/A   Overcast
1:15 AM 19.0 °F 12.3 °F 13.8 °F 80% 30.21 in 10.0 mi ESE 4.6 mph - N/A   Overcast
1:36 AM 19.0 °F 13.9 °F 14.0 °F 81% 30.21 in 10.0 mi ESE 3.5 mph - N/A   Overcast
1:55 AM 19.0 °F - 14.0 °F 81% 30.21 in 10.0 mi Calm Calm - N/A   Overcast
2:15 AM 19.0 °F 13.9 °F 14.5 °F 83% 30.21 in 10.0 mi ESE 3.5 mph - N/A   Overcast
2:35 AM 19.2 °F 14.1 °F 14.7 °F 83% 30.22 in 10.0 mi ESE 3.5 mph - N/A   Overcast
2:55 AM 19.4 °F - 15.3 °F 84% 30.22 in 10.0 mi Calm Calm - N/A   Overcast
3:16 AM 19.4 °F - 15.6 °F 85% 30.21 in 10.0 mi Calm Calm - N/A   Overcast
3:35 AM 19.9 °F - 16.5 °F 87% 30.21 in 10.0 mi Calm Calm - N/A   Overcast
3:55 AM 20.3 °F 15.4 °F 17.4 °F 89% 30.20 in 10.0 mi ESE 3.5 mph - N/A   Overcast
4:16 AM 20.3 °F 13.8 °F 17.6 °F 89% 30.19 in 10.0 mi ESE 4.6 mph - N/A   Overcast
4:35 AM 20.3 °F 15.4 °F 17.6 °F 89% 30.19 in 10.0 mi ESE 3.5 mph - N/A   Overcast
4:55 AM 20.7 °F - 18.3 °F 91% 30.18 in 10.0 mi Calm Calm - N/A   Overcast
5:16 AM 21.0 °F 14.6 °F 18.5 °F 90% 30.17 in 10.0 mi ESE 4.6 mph - N/A   Overcast
5:35 AM 21.0 °F - 18.5 °F 90% 30.17 in 10.0 mi Calm Calm - N/A   Overcast
5:55 AM 24.8 °F 16.9 °F 20.3 °F 83% 30.16 in 10.0 mi SSW 6.9 mph - N/A   Overcast
6:15 AM 27.5 °F 18.6 °F 20.8 °F 76% 30.17 in 10.0 mi SSW 9.2 mph - N/A   Overcast
6:35 AM 28.2 °F 19.5 °F 20.3 °F 72% 30.17 in 10.0 mi SSW 9.2 mph 18.4 mph N/A   Overcast
6:55 AM 28.4 °F 20.4 °F 21.0 °F 74% 30.16 in 10.0 mi South 8.1 mph - N/A   Overcast
7:36 AM 29.1 °F 20.0 °F 21.7 °F 74% 30.14 in 10.0 mi South 10.4 mph - N/A   Overcast
7:55 AM 29.3 °F 20.2 °F 22.8 °F 77% 30.13 in 10.0 mi South 10.4 mph 16.1 mph N/A   Overcast
8:16 AM 29.7 °F 19.1 °F 23.2 °F 77% 30.13 in 10.0 mi South 13.8 mph 18.4 mph N/A   Overcast
8:35 AM 30.2 °F 20.8 °F 23.9 °F 77% 30.13 in 10.0 mi SSW 11.5 mph 18.4 mph N/A   Overcast
8:55 AM 30.6 °F 20.2 °F 23.5 °F 75% 30.12 in 10.0 mi South 13.8 mph 19.6 mph N/A   Overcast
9:16 AM 30.2 °F 19.8 °F 23.9 °F 77% 30.10 in 10.0 mi South 13.8 mph 20.7 mph N/A   Overcast
9:35 AM 30.2 °F 19.8 °F 23.9 °F 77% 30.10 in 10.0 mi South 13.8 mph 27.6 mph N/A   Overcast
10:15 AM 30.2 °F 19.3 °F 23.9 °F 77% 30.09 in 10.0 mi South 15.0 mph 26.5 mph N/A   Mostly Cloudy
10:35 AM 30.7 °F 19.2 °F 23.9 °F 76% 30.08 in 10.0 mi South 17.3 mph 24.2 mph N/A   Scattered Clouds
10:56 AM 31.1 °F 20.1 °F 24.1 °F 75% 30.07 in 10.0 mi SSW 16.1 mph 21.9 mph N/A   Clear
11:15 AM 31.6 °F 20.7 °F 24.1 °F 74% 30.05 in 10.0 mi SSW 16.1 mph 23.0 mph N/A   Clear
11:36 AM 32.0 °F 20.8 °F 24.3 °F 73% 30.03 in 10.0 mi SSW 17.3 mph 21.9 mph N/A   Clear
11:55 AM 32.0 °F 20.8 °F 24.3 °F 73% 30.01 in 10.0 mi SSW 17.3 mph 25.3 mph N/A   Clear
12:15 PM 32.5 °F 21.9 °F 24.3 °F 72% 29.98 in 10.0 mi South 16.1 mph 26.5 mph N/A   Clear
12:35 PM 33.3 °F 22.8 °F 24.4 °F 70% 29.96 in 10.0 mi South 16.1 mph 24.2 mph N/A   Clear
12:55 PM 34.0 °F 23.8 °F 24.8 °F 69% 29.95 in 10.0 mi SSW 16.1 mph 26.5 mph N/A   Clear
1:16 PM 35.1 °F 23.8 °F 24.8 °F 66% 29.93 in 10.0 mi SSW 20.7 mph 28.8 mph N/A   Clear
1:35 PM 35.8 °F 26.1 °F 25.3 °F 66% 29.92 in 10.0 mi South 16.1 mph 23.0 mph N/A   Clear
2:16 PM 36.7 °F 27.2 °F 25.5 °F 64% 29.89 in 10.0 mi South 16.1 mph 25.3 mph N/A   Clear
2:35 PM 36.9 °F 27.5 °F 26.1 °F 65% 29.88 in 10.0 mi South 16.1 mph 21.9 mph N/A   Clear
2:55 PM 37.4 °F 29.3 °F 26.6 °F 65% 29.87 in 10.0 mi South 12.7 mph 17.3 mph N/A   Clear
3:15 PM 37.9 °F 28.9 °F 26.4 °F 63% 29.87 in 10.0 mi SSW 16.1 mph 23.0 mph N/A   Clear
3:35 PM 38.3 °F 31.9 °F 26.2 °F 62% 29.86 in 10.0 mi SSW 9.2 mph - N/A   Clear
3:56 PM 38.3 °F 31.4 °F 26.6 °F 63% 29.86 in 10.0 mi SSW 10.4 mph 17.3 mph N/A   Clear
4:15 PM 38.1 °F 31.7 °F 26.6 °F 63% 29.84 in 10.0 mi SSW 9.2 mph 16.1 mph N/A   Clear
4:36 PM 37.9 °F 32.7 °F 27.0 °F 65% 29.86 in 10.0 mi SW 6.9 mph - N/A   Clear
4:55 PM 37.4 °F 31.4 °F 27.5 °F 67% 29.85 in 10.0 mi SW 8.1 mph - N/A   Scattered Clouds
5:15 PM 37.6 °F 29.6 °F 26.6 °F 65% 29.85 in 10.0 mi SW 12.7 mph 19.6 mph N/A   Scattered Clouds
5:36 PM 37.9 °F 29.6 °F 26.6 °F 64% 29.85 in 10.0 mi SW 13.8 mph 21.9 mph N/A   Scattered Clouds
6:15 PM 37.9 °F 28.5 °F 27.5 °F 66% 29.85 in 10.0 mi WSW 17.3 mph 25.3 mph N/A   Overcast
6:35 PM 37.8 °F 29.8 °F 27.9 °F 67% 29.85 in 10.0 mi WSW 12.7 mph 20.7 mph N/A   Overcast
6:55 PM 37.4 °F 30.3 °F 28.4 °F 70% 29.86 in 10.0 mi SW 10.4 mph 17.3 mph N/A   Overcast
7:15 PM 37.2 °F 28.7 °F 28.6 °F 71% 29.86 in 10.0 mi WSW 13.8 mph 19.6 mph N/A   Overcast
7:35 PM 37.4 °F 30.3 °F 29.1 °F 72% 29.86 in 10.0 mi SW 10.4 mph 20.7 mph N/A   Overcast
7:55 PM 37.0 °F 28.9 °F 29.1 °F 73% 29.86 in 10.0 mi WSW 12.7 mph 20.7 mph N/A   Overcast
8:16 PM 36.9 °F 28.7 °F 29.5 °F 75% 29.86 in 10.0 mi WSW 12.7 mph 21.9 mph N/A   Overcast
8:35 PM 36.9 °F 30.1 °F 29.8 °F 76% 29.86 in 10.0 mi SW 9.2 mph 17.3 mph N/A   Overcast
8:55 PM 36.7 °F 30.5 °F 30.0 °F 77% 29.86 in 10.0 mi SW 8.1 mph 17.3 mph N/A   Mostly Cloudy
9:16 PM 36.1 °F 29.3 °F 30.0 °F 78% 29.85 in 10.0 mi SW 9.2 mph 19.6 mph N/A   Scattered Clouds
9:35 PM 36.0 °F 30.3 °F 30.0 °F 79% 29.85 in 10.0 mi SW 6.9 mph 18.4 mph N/A   Clear
9:55 PM 35.8 °F 28.8 °F 29.8 °F 79% 29.85 in 10.0 mi SW 9.2 mph - N/A   Clear
10:35 PM 35.8 °F 28.3 °F 29.3 °F 77% 29.87 in 10.0 mi SW 10.4 mph - N/A   Clear
10:55 PM 36.0 °F 29.6 °F 29.7 °F 78% 29.87 in 10.0 mi WSW 8.1 mph 19.6 mph N/A   Clear
11:16 PM 35.8 °F 29.4 °F 29.8 °F 79% 29.87 in 10.0 mi WSW 8.1 mph - N/A   Clear
11:35 PM 35.6 °F 28.6 °F 29.7 °F 79% 29.88 in 10.0 mi WSW 9.2 mph 18.4 mph N/A   Clear
11:55 PM 35.8 °F 28.8 °F 29.7 °F 78% 29.88 in 10.0 mi WSW 9.2 mph 16.1 mph N/A   Clear